Le nostre stazioni meteo in Italia

Pubblicità
Il mio iltempo24.it
Bari, Italia (16271): Temperatura & dewpoint: 15.08.2019 14:00:00 - 21.08.2019 14:00:00 (CEST)Bari, Italia (16271): velocità del vento: 15.08.2019 14:00:00 - 21.08.2019 14:00:00 (CEST)Bari, Italia (16271): direzione del vento: 15.08.2019 14:00:00 - 21.08.2019 14:00:00 (CEST)Bari, Italia (16271): reduced air pressure: 15.08.2019 14:00:00 - 21.08.2019 14:00:00 (CEST)
Data & Tempo tt [°C] td [°C] ff [km/h] ff [kn] dd ppp [hPa]
21.08.2019 14:00:00 - - - - - -
21.08.2019 13:00:00 30,2 20,7 15 8 S 1017,2
21.08.2019 12:00:00 29,5 22,2 11 6 S 1017,5
21.08.2019 11:00:00 29,2 21,9 5 3 S 1017,8
21.08.2019 10:00:00 28,4 21,4 5 3 S 1017,9
21.08.2019 09:00:00 27,6 20,9 5 3 S 1017,8
21.08.2019 08:00:00 - - - - - -
21.08.2019 07:00:00 24,3 6,5 9 5 S 1017,2
21.08.2019 06:00:00 24,6 6,3 9 5 S 1016,8
21.08.2019 05:00:00 24,7 8,2 13 7 S 1016,5
21.08.2019 04:00:00 25,0 7,1 11 6 S 1016,5
21.08.2019 03:00:00 25,0 7,1 11 6 S 1016,8
21.08.2019 02:00:00 25,1 7,2 11 6 S 1017,0
21.08.2019 01:00:00 25,7 10,7 13 7 S 1017,1
21.08.2019 00:00:00 25,1 13,9 13 7 S 1017,2
20.08.2019 23:00:00 26,3 20,1 9 5 S 1017,1
20.08.2019 22:00:00 27,1 20,6 4 2 S 1017,2
20.08.2019 21:00:00 27,4 21,2 9 5 S 1017,1
20.08.2019 20:00:00 - - - - - -
20.08.2019 19:00:00 28,3 20,8 15 8 S 1016,7
20.08.2019 18:00:00 28,7 21,7 18 10 S 1016,9
20.08.2019 17:00:00 28,6 21,3 18 10 S 1017,2
20.08.2019 16:00:00 29,1 21,0 21 11 S 1017,4
20.08.2019 15:00:00 29,9 22,8 18 10 S 1017,5
20.08.2019 14:00:00 29,4 22,1 18 10 S 1017,9
20.08.2019 13:00:00 29,2 24,5 15 8 S 1018,2
20.08.2019 12:00:00 29,1 24,4 11 6 S 1018,3
20.08.2019 11:00:00 28,4 23,9 8 4 S 1018,4
20.08.2019 10:00:00 27,5 22,2 8 4 S 1018,2
20.08.2019 09:00:00 26,6 22,4 5 3 S 1018,0
20.08.2019 08:00:00 - - - - - -
20.08.2019 07:00:00 23,5 16,9 9 5 S 1017,7
20.08.2019 06:00:00 23,3 14,8 11 6 S 1017,6
20.08.2019 05:00:00 23,6 12,8 11 6 S 1017,3
20.08.2019 04:00:00 24,3 8,2 8 4 S 1017,2
20.08.2019 03:00:00 24,4 11,3 9 5 S 1017,0
20.08.2019 02:00:00 24,6 13,7 8 4 S 1017,0
20.08.2019 01:00:00 25,9 16,1 2 1 S 1017,1
20.08.2019 00:00:00 26,1 16,8 4 2 S 1017,1
19.08.2019 23:00:00 26,6 17,0 4 2 S 1017,1
19.08.2019 22:00:00 27,2 17,9 8 4 S 1017,0
19.08.2019 21:00:00 27,2 20,7 11 6 S 1016,9
19.08.2019 20:00:00 - - - - - -
19.08.2019 19:00:00 27,9 21,1 16 9 S 1016,4
19.08.2019 18:00:00 28,8 20,7 15 8 S 1016,4
19.08.2019 17:00:00 28,9 20,6 18 10 S 1016,5
19.08.2019 16:00:00 29,6 19,8 21 11 S 1016,7
19.08.2019 15:00:00 30,1 20,0 18 10 S 1016,9
19.08.2019 14:00:00 29,9 21,3 16 9 S 1016,9
19.08.2019 13:00:00 29,7 18,8 13 7 S 1017,1
19.08.2019 12:00:00 29,7 16,1 15 8 S 1017,2
19.08.2019 11:00:00 29,0 15,5 11 6 S 1016,9
19.08.2019 10:00:00 28,3 13,7 8 4 S 1016,8
19.08.2019 09:00:00 27,1 14,8 2 1 S 1016,9
19.08.2019 08:00:00 - - - - - -
19.08.2019 07:00:00 23,0 15,2 9 5 S 1016,3
19.08.2019 06:00:00 22,8 15,3 9 5 S 1016,1
19.08.2019 05:00:00 22,8 15,1 9 5 S 1016,2
19.08.2019 04:00:00 23,6 15,6 5 3 S 1016,2
19.08.2019 03:00:00 24,3 14,6 4 2 S 1016,1
19.08.2019 02:00:00 24,6 14,0 8 4 S 1016,3
19.08.2019 01:00:00 25,0 12,2 11 6 S 1016,3
19.08.2019 00:00:00 25,1 14,8 11 6 S 1016,3
18.08.2019 23:00:00 25,7 16,5 8 4 S 1016,3
18.08.2019 22:00:00 26,5 16,9 8 4 S 1016,3
18.08.2019 21:00:00 26,8 18,6 5 3 S 1016,2
18.08.2019 20:00:00 - - - - - -
18.08.2019 19:00:00 27,5 19,5 11 6 S 1016,3
18.08.2019 18:00:00 28,6 19,8 15 8 S 1016,3
18.08.2019 17:00:00 28,8 19,7 16 9 S 1016,2
18.08.2019 16:00:00 29,0 19,6 18 10 S 1016,5
18.08.2019 15:00:00 29,1 20,2 15 8 S 1016,9
18.08.2019 14:00:00 28,6 20,8 16 9 S 1017,2
18.08.2019 13:00:00 28,6 20,3 15 8 S 1017,5
18.08.2019 12:00:00 27,9 19,9 9 5 S 1017,5
18.08.2019 11:00:00 27,2 18,2 9 5 S 1017,5
18.08.2019 10:00:00 26,6 17,3 5 3 S 1017,2
18.08.2019 09:00:00 25,3 15,8 4 2 S 1016,9
18.08.2019 08:00:00 - - - - - -
18.08.2019 07:00:00 22,1 13,9 8 4 S 1016,6
18.08.2019 06:00:00 22,0 13,8 13 7 S 1016,4
18.08.2019 05:00:00 22,2 14,5 11 6 S 1016,4
18.08.2019 04:00:00 22,4 14,9 11 6 S 1016,4
18.08.2019 03:00:00 23,3 15,5 9 5 S 1016,4
18.08.2019 02:00:00 23,5 16,0 9 5 S 1016,7
18.08.2019 01:00:00 23,8 16,0 9 5 S 1016,8
18.08.2019 00:00:00 24,6 16,5 9 5 S 1016,8
17.08.2019 23:00:00 25,8 16,6 8 4 S 1016,7
17.08.2019 22:00:00 26,1 16,8 5 3 S 1016,5
17.08.2019 21:00:00 26,4 17,1 5 3 S 1016,6
17.08.2019 20:00:00 - - - - - -
17.08.2019 19:00:00 27,3 16,8 16 9 S 1016,5
17.08.2019 18:00:00 27,6 16,8 22 12 S 1016,4
17.08.2019 17:00:00 28,0 16,2 22 12 S 1016,3
17.08.2019 16:00:00 28,5 18,2 22 12 S 1016,6
17.08.2019 15:00:00 28,7 18,4 21 11 S 1016,7
17.08.2019 14:00:00 28,1 19,6 18 10 S 1017,0
17.08.2019 13:00:00 27,7 18,9 22 12 S 1017,1
17.08.2019 12:00:00 27,4 18,6 18 10 S 1017,3
17.08.2019 11:00:00 26,7 17,7 18 10 S 1017,3
17.08.2019 10:00:00 26,0 17,0 18 10 S 1016,9
17.08.2019 09:00:00 25,5 17,4 13 7 S 1016,6
17.08.2019 08:00:00 - - - - - -
17.08.2019 07:00:00 23,1 16,8 15 8 S 1016,1
17.08.2019 06:00:00 22,9 16,4 15 8 S 1016,0
17.08.2019 05:00:00 23,6 16,8 9 5 S 1015,8
17.08.2019 04:00:00 24,1 16,3 11 6 S 1015,9
17.08.2019 03:00:00 24,3 17,0 11 6 S 1016,0
17.08.2019 02:00:00 24,5 15,9 11 6 S 1016,2
17.08.2019 01:00:00 26,0 19,6 16 9 S 1016,1
17.08.2019 00:00:00 25,6 18,0 9 5 S 1016,4
16.08.2019 23:00:00 25,3 16,6 9 5 S 1016,1
16.08.2019 22:00:00 26,0 17,6 9 5 S 1015,9
16.08.2019 21:00:00 26,2 15,5 13 7 S 1015,5
16.08.2019 20:00:00 - - - - - -
16.08.2019 19:00:00 27,0 15,6 15 8 S 1014,7
16.08.2019 18:00:00 27,5 17,3 24 13 S 1014,5
16.08.2019 17:00:00 28,0 16,9 29 16 S 1014,4
16.08.2019 16:00:00 28,6 15,8 28 15 S 1014,7
16.08.2019 15:00:00 29,1 14,1 21 11 S 1014,9
16.08.2019 14:00:00 28,8 14,2 18 10 S 1014,9
16.08.2019 13:00:00 27,6 18,3 16 9 S 1014,9
16.08.2019 12:00:00 27,0 18,2 16 9 S 1015,1
16.08.2019 11:00:00 26,1 17,7 18 10 S 1015,0
16.08.2019 10:00:00 25,9 15,8 13 7 S 1014,8
16.08.2019 09:00:00 25,9 12,0 8 4 S 1014,5
16.08.2019 08:00:00 - - - - - -
16.08.2019 07:00:00 22,2 10,3 13 7 S 1014,2
16.08.2019 06:00:00 22,4 12,6 11 6 S 1013,8
16.08.2019 05:00:00 23,3 13,4 9 5 S 1013,7
16.08.2019 04:00:00 23,3 13,1 13 7 S 1014,0
16.08.2019 03:00:00 23,8 13,9 15 8 S 1014,1
16.08.2019 02:00:00 23,8 14,1 16 9 S 1014,1
16.08.2019 01:00:00 24,1 14,1 15 8 S 1014,3
16.08.2019 00:00:00 24,5 14,2 15 8 S 1014,6
15.08.2019 23:00:00 25,7 17,5 24 13 S 1014,6
15.08.2019 22:00:00 25,7 17,3 28 15 S 1014,2
15.08.2019 21:00:00 25,8 16,8 29 16 S 1013,9
15.08.2019 20:00:00 - - - - - -
15.08.2019 19:00:00 26,3 17,6 31 17 S 1013,2
15.08.2019 18:00:00 26,7 16,3 35 19 S 1013,1
15.08.2019 17:00:00 26,8 17,8 39 21 S 1013,0
15.08.2019 16:00:00 - - - - - -
15.08.2019 15:00:00 27,5 17,9 29 16 S 1012,9
15.08.2019 14:00:00 27,4 18,1 29 16 S 1013,2

tt = Temperatura
td = dewpoint
ff = velocità del vento
dd = direzione del vento
ppp = reduced air pressure

Stazioni seguenti

WeatherPro
AMSI
MeteoEarth